Year,Month,Day,Hour,Minute,Value (Times are PST for temperature in C)
2011,08,19,00,00,14.40
2011,08,19,00,01,14.40
2011,08,19,00,02,14.40
2011,08,19,00,03,14.40
2011,08,19,00,04,14.40
2011,08,19,00,05,14.40
2011,08,19,00,06,14.40
2011,08,19,00,07,14.40
2011,08,19,00,08,14.40
2011,08,19,00,09,14.40
2011,08,19,00,10,14.40
2011,08,19,00,11,14.30
2011,08,19,00,12,14.30
2011,08,19,00,13,14.30
2011,08,19,00,14,14.20
2011,08,19,00,15,14.20
2011,08,19,00,16,14.20
2011,08,19,00,17,14.20
2011,08,19,00,18,14.20
2011,08,19,00,19,14.20
2011,08,19,00,20,14.10
2011,08,19,00,21,14.10
2011,08,19,00,22,14.10
2011,08,19,00,23,14.10
2011,08,19,00,24,14.00
2011,08,19,00,25,14.00
2011,08,19,00,26,14.00
2011,08,19,00,27,14.00
2011,08,19,00,28,14.00
2011,08,19,00,29,13.90
2011,08,19,00,30,13.90
2011,08,19,00,31,13.90
2011,08,19,00,32,13.90
2011,08,19,00,33,13.80
2011,08,19,00,34,13.80
2011,08,19,00,35,13.80
2011,08,19,00,36,13.80
2011,08,19,00,37,13.80
2011,08,19,00,38,13.80
2011,08,19,00,39,13.80
2011,08,19,00,40,13.80
2011,08,19,00,41,13.80
2011,08,19,00,42,13.80
2011,08,19,00,43,13.80
2011,08,19,00,44,13.80
2011,08,19,00,45,13.80
2011,08,19,00,46,13.70
2011,08,19,00,47,13.70
2011,08,19,00,48,13.70
2011,08,19,00,49,13.70
2011,08,19,00,50,13.70
2011,08,19,00,51,13.70
2011,08,19,00,52,13.70
2011,08,19,00,53,13.70
2011,08,19,00,54,13.70
2011,08,19,00,55,13.70
2011,08,19,00,56,13.60
2011,08,19,00,57,13.60
2011,08,19,00,58,13.60
2011,08,19,00,59,13.60
2011,08,19,01,00,13.50
2011,08,19,01,01,13.50
2011,08,19,01,02,13.50
2011,08,19,01,03,13.40
2011,08,19,01,04,13.40
2011,08,19,01,05,13.40
2011,08,19,01,06,13.30
2011,08,19,01,07,13.30
2011,08,19,01,08,13.30
2011,08,19,01,09,13.30
2011,08,19,01,10,13.30
2011,08,19,01,11,13.30
2011,08,19,01,12,13.20
2011,08,19,01,13,13.20
2011,08,19,01,14,13.20
2011,08,19,01,15,13.20
2011,08,19,01,16,13.10
2011,08,19,01,17,13.10
2011,08,19,01,18,13.10
2011,08,19,01,19,13.00
2011,08,19,01,20,13.00
2011,08,19,01,21,13.00
2011,08,19,01,22,12.90
2011,08,19,01,23,12.90
2011,08,19,01,24,12.90
2011,08,19,01,25,12.80
2011,08,19,01,26,12.80
2011,08,19,01,27,12.80
2011,08,19,01,28,12.80
2011,08,19,01,29,12.80
2011,08,19,01,30,12.70
2011,08,19,01,31,12.70
2011,08,19,01,32,12.60
2011,08,19,01,33,12.60
2011,08,19,01,34,12.60
2011,08,19,01,35,12.60
2011,08,19,01,36,12.50
2011,08,19,01,37,12.50
2011,08,19,01,38,12.50
2011,08,19,01,39,12.50
2011,08,19,01,40,12.40
2011,08,19,01,41,12.40
2011,08,19,01,42,12.40
2011,08,19,01,43,12.30
2011,08,19,01,44,12.30
2011,08,19,01,45,12.30
2011,08,19,01,46,12.30
2011,08,19,01,47,12.30
2011,08,19,01,48,12.30
2011,08,19,01,49,12.30
2011,08,19,01,50,12.30
2011,08,19,01,51,12.30
2011,08,19,01,52,12.20
2011,08,19,01,53,12.20
2011,08,19,01,54,12.20
2011,08,19,01,55,12.20
2011,08,19,01,56,12.20
2011,08,19,01,57,12.10
2011,08,19,01,58,12.10
2011,08,19,01,59,12.10
2011,08,19,02,00,12.10
2011,08,19,02,01,12.10
2011,08,19,02,02,12.10
2011,08,19,02,03,12.00
2011,08,19,02,04,12.00
2011,08,19,02,05,12.00
2011,08,19,02,06,12.00
2011,08,19,02,07,11.90
2011,08,19,02,08,11.90
2011,08,19,02,09,11.90
2011,08,19,02,10,11.90
2011,08,19,02,11,11.90
2011,08,19,02,12,11.90
2011,08,19,02,13,11.80
2011,08,19,02,14,11.80
2011,08,19,02,15,11.80
2011,08,19,02,16,11.80
2011,08,19,02,17,11.80
2011,08,19,02,18,11.80
2011,08,19,02,19,11.80
2011,08,19,02,20,11.80
2011,08,19,02,21,11.80
2011,08,19,02,22,11.80
2011,08,19,02,23,11.80
2011,08,19,02,24,11.70
2011,08,19,02,25,11.70
2011,08,19,02,26,11.70
2011,08,19,02,27,11.70
2011,08,19,02,28,11.60
2011,08,19,02,29,11.60
2011,08,19,02,30,11.60
2011,08,19,02,31,11.60
2011,08,19,02,32,11.60
2011,08,19,02,33,11.60
2011,08,19,02,34,11.60
2011,08,19,02,35,11.60
2011,08,19,02,36,11.60
2011,08,19,02,37,11.60
2011,08,19,02,38,11.60
2011,08,19,02,39,11.60
2011,08,19,02,40,11.60
2011,08,19,02,41,11.50
2011,08,19,02,42,11.40
2011,08,19,02,43,11.40
2011,08,19,02,44,11.40
2011,08,19,02,45,11.40
2011,08,19,02,46,11.40
2011,08,19,02,47,11.40
2011,08,19,02,48,11.40
2011,08,19,02,49,11.40
2011,08,19,02,50,11.40
2011,08,19,02,51,11.40
2011,08,19,02,52,11.40
2011,08,19,02,53,11.40
2011,08,19,02,54,11.40
2011,08,19,02,55,11.40
2011,08,19,02,56,11.40
2011,08,19,02,57,11.40
2011,08,19,02,58,11.30
2011,08,19,02,59,11.30
2011,08,19,03,00,11.30
2011,08,19,03,01,11.30
2011,08,19,03,02,11.30
2011,08,19,03,03,11.30
2011,08,19,03,04,11.30
2011,08,19,03,05,11.30
2011,08,19,03,06,11.30
2011,08,19,03,07,11.20
2011,08,19,03,08,11.20
2011,08,19,03,09,11.20
2011,08,19,03,10,11.20
2011,08,19,03,11,11.20
2011,08,19,03,12,11.20
2011,08,19,03,13,11.10
2011,08,19,03,14,11.10
2011,08,19,03,15,11.10
2011,08,19,03,16,11.10
2011,08,19,03,17,11.10
2011,08,19,03,18,11.10
2011,08,19,03,19,11.10
2011,08,19,03,20,11.10
2011,08,19,03,21,11.10
2011,08,19,03,22,11.10
2011,08,19,03,23,11.10
2011,08,19,03,24,11.10
2011,08,19,03,25,11.10
2011,08,19,03,26,11.10
2011,08,19,03,27,11.10
2011,08,19,03,28,11.10
2011,08,19,03,29,11.10
2011,08,19,03,30,11.10
2011,08,19,03,31,11.10
2011,08,19,03,32,11.10
2011,08,19,03,33,11.10
2011,08,19,03,34,11.10
2011,08,19,03,35,11.10
2011,08,19,03,36,11.10
2011,08,19,03,37,11.10
2011,08,19,03,38,11.10
2011,08,19,03,39,10.90
2011,08,19,03,40,10.90
2011,08,19,03,41,10.90
2011,08,19,03,42,10.90
2011,08,19,03,43,10.90
2011,08,19,03,44,10.90
2011,08,19,03,45,10.90
2011,08,19,03,46,10.90
2011,08,19,03,47,10.90
2011,08,19,03,48,10.90
2011,08,19,03,49,10.90
2011,08,19,03,50,10.90
2011,08,19,03,51,10.90
2011,08,19,03,52,10.90
2011,08,19,03,53,10.90
2011,08,19,03,54,10.90
2011,08,19,03,55,10.90
2011,08,19,03,56,10.90
2011,08,19,03,57,10.90
2011,08,19,03,58,10.90
2011,08,19,03,59,10.90
2011,08,19,04,00,10.90
2011,08,19,04,01,10.90
2011,08,19,04,02,10.80
2011,08,19,04,03,10.80
2011,08,19,04,04,10.80
2011,08,19,04,05,10.80
2011,08,19,04,06,10.80
2011,08,19,04,07,10.80
2011,08,19,04,08,10.80
2011,08,19,04,09,10.80
2011,08,19,04,10,10.80
2011,08,19,04,11,10.80
2011,08,19,04,12,10.80
2011,08,19,04,13,10.80
2011,08,19,04,14,10.70
2011,08,19,04,15,10.70
2011,08,19,04,16,10.70
2011,08,19,04,17,10.70
2011,08,19,04,18,10.70
2011,08,19,04,19,10.70
2011,08,19,04,20,10.70
2011,08,19,04,21,10.70
2011,08,19,04,22,10.70
2011,08,19,04,23,10.70
2011,08,19,04,24,10.70
2011,08,19,04,25,10.70
2011,08,19,04,26,10.70
2011,08,19,04,27,10.70
2011,08,19,04,28,10.70
2011,08,19,04,29,10.60
2011,08,19,04,30,10.60
2011,08,19,04,31,10.60
2011,08,19,04,32,10.60
2011,08,19,04,33,10.60
2011,08,19,04,34,10.60
2011,08,19,04,35,10.60
2011,08,19,04,36,10.60
2011,08,19,04,37,10.60
2011,08,19,04,38,10.60
2011,08,19,04,39,10.60
2011,08,19,04,40,10.40
2011,08,19,04,41,10.40
2011,08,19,04,42,10.40
2011,08,19,04,43,10.40
2011,08,19,04,44,10.40
2011,08,19,04,45,10.40
2011,08,19,04,46,10.40
2011,08,19,04,47,10.40
2011,08,19,04,48,10.40
2011,08,19,04,49,10.40
2011,08,19,04,50,10.40
2011,08,19,04,51,10.40
2011,08,19,04,52,10.40
2011,08,19,04,53,10.40
2011,08,19,04,54,10.40
2011,08,19,04,55,10.40
2011,08,19,04,56,10.40
2011,08,19,04,57,10.40
2011,08,19,04,58,10.40
2011,08,19,04,59,10.40
2011,08,19,05,00,10.40
2011,08,19,05,01,10.40
2011,08,19,05,02,10.30
2011,08,19,05,03,10.30
2011,08,19,05,04,10.30
2011,08,19,05,05,10.30
2011,08,19,05,06,10.30
2011,08,19,05,07,10.30
2011,08,19,05,08,10.30
2011,08,19,05,09,10.30
2011,08,19,05,10,10.30
2011,08,19,05,11,10.20
2011,08,19,05,12,10.20
2011,08,19,05,13,10.20
2011,08,19,05,14,10.20
2011,08,19,05,15,10.20
2011,08,19,05,16,10.20
2011,08,19,05,17,10.20
2011,08,19,05,18,10.10
2011,08,19,05,19,10.10
2011,08,19,05,20,10.10
2011,08,19,05,21,10.10
2011,08,19,05,22,10.10
2011,08,19,05,23,10.10
2011,08,19,05,24,10.10
2011,08,19,05,25,10.10
2011,08,19,05,26,10.10
2011,08,19,05,27,10.10
2011,08,19,05,28,10.10
2011,08,19,05,29,10.10
2011,08,19,05,30,10.10
2011,08,19,05,31,10.10
2011,08,19,05,32,10.10
2011,08,19,05,33,10.10
2011,08,19,05,34,10.10
2011,08,19,05,35,10.10
2011,08,19,05,36,10.10
2011,08,19,05,37,10.10
2011,08,19,05,38,10.10
2011,08,19,05,39,10.10
2011,08,19,05,40,10.10
2011,08,19,05,41,10.10
2011,08,19,05,42,10.10
2011,08,19,05,43,10.10
2011,08,19,05,44,10.00
2011,08,19,05,45,9.90
2011,08,19,05,46,9.90
2011,08,19,05,47,9.90
2011,08,19,05,48,9.90
2011,08,19,05,49,9.90
2011,08,19,05,50,9.90
2011,08,19,05,51,9.90
2011,08,19,05,52,9.90
2011,08,19,05,53,9.90
2011,08,19,05,54,9.90
2011,08,19,05,55,9.90
2011,08,19,05,56,9.90
2011,08,19,05,57,9.90
2011,08,19,05,58,9.90
2011,08,19,05,59,9.90
2011,08,19,06,00,9.90
2011,08,19,06,01,9.90
2011,08,19,06,02,9.90
2011,08,19,06,03,9.80
2011,08,19,06,04,9.80
2011,08,19,06,05,9.80
2011,08,19,06,06,9.80
2011,08,19,06,07,9.80
2011,08,19,06,08,9.80
2011,08,19,06,09,9.80
2011,08,19,06,10,9.70
2011,08,19,06,11,9.70
2011,08,19,06,12,9.70
2011,08,19,06,13,9.70
2011,08,19,06,14,9.70
2011,08,19,06,15,9.70
2011,08,19,06,16,9.70
2011,08,19,06,17,9.70
2011,08,19,06,18,9.70
2011,08,19,06,19,9.70
2011,08,19,06,20,9.70
2011,08,19,06,21,9.70
2011,08,19,06,22,9.70
2011,08,19,06,23,9.70
2011,08,19,06,24,9.70
2011,08,19,06,25,9.70
2011,08,19,06,26,9.70
2011,08,19,06,27,9.70
2011,08,19,06,28,9.70
2011,08,19,06,29,9.70
2011,08,19,06,30,9.70
2011,08,19,06,31,9.70
2011,08,19,06,32,9.70
2011,08,19,06,33,9.60
2011,08,19,06,34,9.60
2011,08,19,06,35,9.60
2011,08,19,06,36,9.60
2011,08,19,06,37,9.60
2011,08,19,06,38,9.60
2011,08,19,06,39,9.60
2011,08,19,06,40,9.60
2011,08,19,06,41,9.60
2011,08,19,06,42,9.60
2011,08,19,06,43,9.60
2011,08,19,06,44,9.60
2011,08,19,06,45,9.60
2011,08,19,06,46,9.70
2011,08,19,06,47,9.70
2011,08,19,06,48,9.70
2011,08,19,06,49,9.70
2011,08,19,06,50,9.70
2011,08,19,06,51,9.70
2011,08,19,06,52,9.70
2011,08,19,06,53,9.70
2011,08,19,06,54,9.80
2011,08,19,06,55,9.80
2011,08,19,06,56,9.80
2011,08,19,06,57,9.90
2011,08,19,06,58,9.90
2011,08,19,06,59,9.90
2011,08,19,07,00,9.90
2011,08,19,07,01,9.90
2011,08,19,07,02,10.00
2011,08,19,07,03,10.10
2011,08,19,07,04,10.10
2011,08,19,07,05,10.20
2011,08,19,07,06,10.20
2011,08,19,07,07,10.30
2011,08,19,07,08,10.40
2011,08,19,07,09,10.60
2011,08,19,07,10,10.60
2011,08,19,07,11,10.70
2011,08,19,07,12,10.80
2011,08,19,07,13,10.80
2011,08,19,07,14,10.90
2011,08,19,07,15,10.90
2011,08,19,07,16,10.90
2011,08,19,07,17,11.00
2011,08,19,07,18,11.10
2011,08,19,07,19,11.10
2011,08,19,07,20,11.10
2011,08,19,07,21,11.10
2011,08,19,07,22,11.10
2011,08,19,07,23,11.20
2011,08,19,07,24,11.20
2011,08,19,07,25,11.30
2011,08,19,07,26,11.30
2011,08,19,07,27,11.30
2011,08,19,07,28,11.40
2011,08,19,07,29,11.40
2011,08,19,07,30,11.50
2011,08,19,07,31,11.60
2011,08,19,07,32,11.60
2011,08,19,07,33,11.60
2011,08,19,07,34,11.70
2011,08,19,07,35,11.70
2011,08,19,07,36,11.80
2011,08,19,07,37,11.80
2011,08,19,07,38,11.90
2011,08,19,07,39,11.90
2011,08,19,07,40,12.00
2011,08,19,07,41,12.10
2011,08,19,07,42,12.20
2011,08,19,07,43,12.30
2011,08,19,07,44,12.30
2011,08,19,07,45,12.50
2011,08,19,07,46,12.60
2011,08,19,07,47,12.60
2011,08,19,07,48,12.80
2011,08,19,07,49,12.80
2011,08,19,07,50,12.90
2011,08,19,07,51,13.00
2011,08,19,07,52,13.10
2011,08,19,07,53,13.20
2011,08,19,07,54,13.30
2011,08,19,07,55,13.40
2011,08,19,07,56,13.50
2011,08,19,07,57,13.60
2011,08,19,07,58,13.70
2011,08,19,07,59,13.80
2011,08,19,08,00,13.80
2011,08,19,08,01,13.90
2011,08,19,08,02,14.00
2011,08,19,08,03,14.00
2011,08,19,08,04,14.10
2011,08,19,08,05,14.20
2011,08,19,08,06,14.20
2011,08,19,08,07,14.40
2011,08,19,08,08,14.40
2011,08,19,08,09,14.50
2011,08,19,08,10,14.60
2011,08,19,08,11,14.70
2011,08,19,08,12,14.80
2011,08,19,08,13,14.90
2011,08,19,08,14,15.00
2011,08,19,08,15,15.10
2011,08,19,08,16,15.20
2011,08,19,08,17,15.30
2011,08,19,08,18,15.40
2011,08,19,08,19,15.60
2011,08,19,08,20,15.70
2011,08,19,08,21,15.80
2011,08,19,08,22,16.00
2011,08,19,08,23,16.20
2011,08,19,08,24,16.30
2011,08,19,08,25,16.40
2011,08,19,08,26,16.60
2011,08,19,08,27,16.70
2011,08,19,08,28,16.70
2011,08,19,08,29,16.70
2011,08,19,08,30,16.80
2011,08,19,08,31,16.90
2011,08,19,08,32,16.90
2011,08,19,08,33,17.00
2011,08,19,08,34,17.00
2011,08,19,08,35,17.00
2011,08,19,08,36,17.10
2011,08,19,08,37,17.10
2011,08,19,08,38,17.10
2011,08,19,08,39,17.10
2011,08,19,08,40,17.20
2011,08,19,08,41,17.20
2011,08,19,08,42,17.20
2011,08,19,08,43,17.20
2011,08,19,08,44,17.20
2011,08,19,08,45,17.20
2011,08,19,08,46,17.30
2011,08,19,08,47,17.30
2011,08,19,08,48,17.30
2011,08,19,08,49,17.30
2011,08,19,08,50,17.30
2011,08,19,08,51,17.30
2011,08,19,08,52,17.30
2011,08,19,08,53,17.30
2011,08,19,08,54,17.30
2011,08,19,08,55,17.30
2011,08,19,08,56,17.30
2011,08,19,08,57,17.30
2011,08,19,08,58,17.30
2011,08,19,08,59,17.30
2011,08,19,09,00,17.30
2011,08,19,09,01,17.40
2011,08,19,09,02,17.40
2011,08,19,09,03,17.40
2011,08,19,09,04,17.30
2011,08,19,09,05,17.30
2011,08,19,09,06,17.30
2011,08,19,09,07,17.20
2011,08,19,09,08,17.20
2011,08,19,09,09,17.20
2011,08,19,09,10,17.10
2011,08,19,09,11,17.00
2011,08,19,09,12,17.00
2011,08,19,09,13,17.00
2011,08,19,09,14,17.00
2011,08,19,09,15,17.00
2011,08,19,09,16,17.10
2011,08,19,09,17,17.10
2011,08,19,09,18,17.20
2011,08,19,09,19,17.30
2011,08,19,09,20,17.30
2011,08,19,09,21,17.30
2011,08,19,09,22,17.30
2011,08,19,09,23,17.20
2011,08,19,09,24,17.00
2011,08,19,09,25,16.90
2011,08,19,09,26,16.80
2011,08,19,09,27,16.70
2011,08,19,09,28,16.60
2011,08,19,09,29,16.50
2011,08,19,09,30,16.40
2011,08,19,09,31,16.40
2011,08,19,09,32,16.40
2011,08,19,09,33,16.30
2011,08,19,09,34,16.20
2011,08,19,09,35,16.10
2011,08,19,09,36,16.10
2011,08,19,09,37,16.10
2011,08,19,09,38,16.10
2011,08,19,09,39,16.20
2011,08,19,09,40,16.20
2011,08,19,09,41,16.30
2011,08,19,09,42,16.40
2011,08,19,09,43,16.50
2011,08,19,09,44,16.70
2011,08,19,09,45,16.70
2011,08,19,09,46,16.80
2011,08,19,09,47,16.80
2011,08,19,09,48,16.90
2011,08,19,09,49,16.90
2011,08,19,09,50,16.90
2011,08,19,09,51,16.80
2011,08,19,09,52,16.80
2011,08,19,09,53,16.90
2011,08,19,09,54,16.90
2011,08,19,09,55,16.90
2011,08,19,09,56,16.90
2011,08,19,09,57,17.00
2011,08,19,09,58,17.00
2011,08,19,09,59,17.00
2011,08,19,10,00,17.10
2011,08,19,10,01,17.30
2011,08,19,10,02,17.30
2011,08,19,10,03,17.30
2011,08,19,10,04,17.30
2011,08,19,10,05,17.30
2011,08,19,10,06,17.40
2011,08,19,10,07,17.40
2011,08,19,10,08,17.30
2011,08,19,10,09,17.30
2011,08,19,10,10,17.30
2011,08,19,10,11,17.20
2011,08,19,10,12,17.20
2011,08,19,10,13,17.20
2011,08,19,10,14,17.30
2011,08,19,10,15,17.30
2011,08,19,10,16,17.20
2011,08,19,10,17,17.10
2011,08,19,10,18,17.00
2011,08,19,10,19,17.10
2011,08,19,10,20,17.10
2011,08,19,10,21,17.20
2011,08,19,10,22,17.30
2011,08,19,10,23,17.30
2011,08,19,10,24,17.30
2011,08,19,10,25,17.30
2011,08,19,10,26,17.30
2011,08,19,10,27,17.20
2011,08,19,10,28,17.10
2011,08,19,10,29,17.00
2011,08,19,10,30,17.10
2011,08,19,10,31,17.10
2011,08,19,10,32,17.10
2011,08,19,10,33,17.00
2011,08,19,10,34,17.00
2011,08,19,10,35,17.00
2011,08,19,10,36,17.10
2011,08,19,10,37,17.30
2011,08,19,10,38,17.40
2011,08,19,10,39,17.40
2011,08,19,10,40,17.50
2011,08,19,10,41,17.60
2011,08,19,10,42,17.60
2011,08,19,10,43,17.70
2011,08,19,10,44,17.70
2011,08,19,10,45,17.80
2011,08,19,10,46,18.00
2011,08,19,10,47,18.10
2011,08,19,10,48,18.00
2011,08,19,10,49,17.90
2011,08,19,10,50,17.90
2011,08,19,10,51,18.00
2011,08,19,10,52,18.20
2011,08,19,10,53,18.20
2011,08,19,10,54,18.10
2011,08,19,10,55,18.10
2011,08,19,10,56,17.90
2011,08,19,10,57,17.90
2011,08,19,10,58,17.90
2011,08,19,10,59,17.80
2011,08,19,11,00,17.90
2011,08,19,11,01,18.00
2011,08,19,11,02,18.10
2011,08,19,11,03,18.20
2011,08,19,11,04,18.30
2011,08,19,11,05,18.30
2011,08,19,11,06,18.30
2011,08,19,11,07,18.30
2011,08,19,11,08,18.30
2011,08,19,11,09,18.20
2011,08,19,11,10,18.10
2011,08,19,11,11,18.10
2011,08,19,11,12,18.10
2011,08,19,11,13,18.10
2011,08,19,11,14,18.20
2011,08,19,11,15,18.20
2011,08,19,11,16,18.20
2011,08,19,11,17,18.10
2011,08,19,11,18,18.10
2011,08,19,11,19,18.00
2011,08,19,11,20,17.90
2011,08,19,11,21,17.90
2011,08,19,11,22,17.90
2011,08,19,11,23,17.90
2011,08,19,11,24,18.10
2011,08,19,11,25,18.10
2011,08,19,11,26,18.10
2011,08,19,11,27,18.20
2011,08,19,11,28,18.30
2011,08,19,11,29,18.30
2011,08,19,11,30,18.40
2011,08,19,11,31,18.60
2011,08,19,11,32,18.70
2011,08,19,11,33,18.80
2011,08,19,11,34,18.90
2011,08,19,11,35,18.90
2011,08,19,11,36,19.10
2011,08,19,11,37,19.30
2011,08,19,11,38,19.50
2011,08,19,11,39,19.60
2011,08,19,11,40,19.80
2011,08,19,11,41,19.90
2011,08,19,11,42,19.90
2011,08,19,11,43,19.80
2011,08,19,11,44,19.70
2011,08,19,11,45,19.70
2011,08,19,11,46,19.80
2011,08,19,11,47,19.60
2011,08,19,11,48,19.60
2011,08,19,11,49,19.60
2011,08,19,11,50,19.60
2011,08,19,11,51,19.80
2011,08,19,11,52,19.80
2011,08,19,11,53,19.80
2011,08,19,11,54,19.60
2011,08,19,11,55,19.50
2011,08,19,11,56,19.40
2011,08,19,11,57,19.40
2011,08,19,11,58,19.40
2011,08,19,11,59,19.40
2011,08,19,12,00,19.40
2011,08,19,12,01,19.40
2011,08,19,12,02,19.40
2011,08,19,12,03,19.60
2011,08,19,12,04,19.70
2011,08,19,12,05,19.90
2011,08,19,12,06,19.90
2011,08,19,12,07,19.70
2011,08,19,12,08,19.70
2011,08,19,12,09,19.80
2011,08,19,12,10,19.90
2011,08,19,12,11,19.80
2011,08,19,12,12,19.70
2011,08,19,12,13,19.60
2011,08,19,12,14,19.50
2011,08,19,12,15,19.50
2011,08,19,12,16,19.40
2011,08,19,12,17,19.40
2011,08,19,12,18,19.50
2011,08,19,12,19,19.60
2011,08,19,12,20,19.50
2011,08,19,12,21,19.40
2011,08,19,12,22,19.40
2011,08,19,12,23,19.60
2011,08,19,12,24,19.80
2011,08,19,12,25,19.90
2011,08,19,12,26,20.10
2011,08,19,12,27,20.20
2011,08,19,12,28,20.30
2011,08,19,12,29,20.20
2011,08,19,12,30,20.20
2011,08,19,12,31,20.20
2011,08,19,12,32,20.20
2011,08,19,12,33,20.10
2011,08,19,12,34,20.00
2011,08,19,12,35,19.90
2011,08,19,12,36,19.90
2011,08,19,12,37,19.90
2011,08,19,12,38,19.90
2011,08,19,12,39,19.90
2011,08,19,12,40,20.10
2011,08,19,12,41,20.20
2011,08,19,12,42,20.30
2011,08,19,12,43,20.40
2011,08,19,12,44,20.40
2011,08,19,12,45,20.30
2011,08,19,12,46,20.10
2011,08,19,12,47,20.00
2011,08,19,12,48,19.90
2011,08,19,12,49,19.90
2011,08,19,12,50,20.00
2011,08,19,12,51,20.10
2011,08,19,12,52,20.00
2011,08,19,12,53,19.90
2011,08,19,12,54,19.90
2011,08,19,12,55,19.90
2011,08,19,12,56,20.00
2011,08,19,12,57,20.10
2011,08,19,12,58,20.20
2011,08,19,12,59,20.20
2011,08,19,13,00,20.20
2011,08,19,13,01,20.20
2011,08,19,13,02,20.20
2011,08,19,13,03,20.20
2011,08,19,13,04,20.30
2011,08,19,13,05,20.30
2011,08,19,13,06,20.30
2011,08,19,13,07,20.30
2011,08,19,13,08,20.30
2011,08,19,13,09,20.40
2011,08,19,13,10,20.50
2011,08,19,13,11,20.50
2011,08,19,13,12,20.30
2011,08,19,13,13,20.20
2011,08,19,13,14,20.20
2011,08,19,13,15,20.20
2011,08,19,13,16,20.30
2011,08,19,13,17,20.40
2011,08,19,13,18,20.60
2011,08,19,13,19,20.70
2011,08,19,13,20,20.70
2011,08,19,13,21,20.60
2011,08,19,13,22,20.40
2011,08,19,13,23,20.20
2011,08,19,13,24,20.10
2011,08,19,13,25,20.00
2011,08,19,13,26,20.00
2011,08,19,13,27,20.10
2011,08,19,13,28,20.10
2011,08,19,13,29,20.30
2011,08,19,13,30,20.40
2011,08,19,13,31,20.50
2011,08,19,13,32,20.40
2011,08,19,13,33,20.40
2011,08,19,13,34,20.30
2011,08,19,13,35,20.30
2011,08,19,13,36,20.20
2011,08,19,13,37,20.20
2011,08,19,13,38,20.10
2011,08,19,13,39,20.10
2011,08,19,13,40,19.90
2011,08,19,13,41,19.90
2011,08,19,13,42,20.10
2011,08,19,13,43,20.20
2011,08,19,13,44,20.20
2011,08,19,13,45,20.20
2011,08,19,13,46,20.20
2011,08,19,13,47,20.40
2011,08,19,13,48,20.60
2011,08,19,13,49,20.70
2011,08,19,13,50,20.70
2011,08,19,13,51,20.80
2011,08,19,13,52,20.80
2011,08,19,13,53,20.70
2011,08,19,13,54,20.80
2011,08,19,13,55,20.90
2011,08,19,13,56,20.80
2011,08,19,13,57,20.80
2011,08,19,13,58,20.80
2011,08,19,13,59,20.70
2011,08,19,14,00,20.70
2011,08,19,14,01,20.70
2011,08,19,14,02,20.70
2011,08,19,14,03,20.60
2011,08,19,14,04,20.50
2011,08,19,14,05,20.50
2011,08,19,14,06,20.50
2011,08,19,14,07,20.40
2011,08,19,14,08,20.40
2011,08,19,14,09,20.50
2011,08,19,14,10,20.60
2011,08,19,14,11,20.60
2011,08,19,14,12,20.70
2011,08,19,14,13,20.80
2011,08,19,14,14,20.80
2011,08,19,14,15,20.90
2011,08,19,14,16,21.00
2011,08,19,14,17,21.10
2011,08,19,14,18,21.30
2011,08,19,14,19,21.40
2011,08,19,14,20,21.60
2011,08,19,14,21,21.90
2011,08,19,14,22,22.10
2011,08,19,14,23,22.20
2011,08,19,14,24,22.30
2011,08,19,14,25,22.20
2011,08,19,14,26,22.00
2011,08,19,14,27,21.90
2011,08,19,14,28,21.60
2011,08,19,14,29,21.30
2011,08,19,14,30,21.30
2011,08,19,14,31,21.30
2011,08,19,14,32,21.40
2011,08,19,14,33,21.40
2011,08,19,14,34,21.30
2011,08,19,14,35,21.30
2011,08,19,14,36,21.30
2011,08,19,14,37,21.30
2011,08,19,14,38,21.20
2011,08,19,14,39,21.10
2011,08,19,14,40,21.10
2011,08,19,14,41,21.10
2011,08,19,14,42,21.00
2011,08,19,14,43,21.10
2011,08,19,14,44,21.20
2011,08,19,14,45,21.30
2011,08,19,14,46,21.50
2011,08,19,14,47,21.70
2011,08,19,14,48,21.80
2011,08,19,14,49,21.90
2011,08,19,14,50,22.00
2011,08,19,14,51,21.90
2011,08,19,14,52,21.90
2011,08,19,14,53,21.80
2011,08,19,14,54,21.70
2011,08,19,14,55,21.70
2011,08,19,14,56,21.70
2011,08,19,14,57,21.80
2011,08,19,14,58,21.70
2011,08,19,14,59,21.70
2011,08,19,15,00,21.70
2011,08,19,15,01,21.70
2011,08,19,15,02,21.70
2011,08,19,15,03,21.70
2011,08,19,15,04,21.70
2011,08,19,15,05,21.70
2011,08,19,15,06,21.70
2011,08,19,15,07,21.60
2011,08,19,15,08,21.60
2011,08,19,15,09,21.50
2011,08,19,15,10,21.40
2011,08,19,15,11,21.30
2011,08,19,15,12,21.30
2011,08,19,15,13,21.30
2011,08,19,15,14,21.30
2011,08,19,15,15,21.30
2011,08,19,15,16,21.40
2011,08,19,15,17,21.40
2011,08,19,15,18,21.40
2011,08,19,15,19,21.40
2011,08,19,15,20,21.60
2011,08,19,15,21,21.60
2011,08,19,15,22,21.50
2011,08,19,15,23,21.40
2011,08,19,15,24,21.30
2011,08,19,15,25,21.30
2011,08,19,15,26,21.40
2011,08,19,15,27,21.40
2011,08,19,15,28,21.50
2011,08,19,15,29,21.60
2011,08,19,15,30,21.60
2011,08,19,15,31,21.60
2011,08,19,15,32,21.60
2011,08,19,15,33,21.60
2011,08,19,15,34,21.60
2011,08,19,15,35,21.60
2011,08,19,15,36,21.60
2011,08,19,15,37,21.60
2011,08,19,15,38,21.60
2011,08,19,15,39,21.60
2011,08,19,15,40,21.60
2011,08,19,15,41,21.60
2011,08,19,15,42,21.60
2011,08,19,15,43,21.60
2011,08,19,15,44,21.80
2011,08,19,15,45,21.80
2011,08,19,15,46,21.70
2011,08,19,15,47,21.70
2011,08,19,15,48,21.80
2011,08,19,15,49,22.00
2011,08,19,15,50,22.20
2011,08,19,15,51,22.30
2011,08,19,15,52,22.20
2011,08,19,15,53,22.10
2011,08,19,15,54,22.10
2011,08,19,15,55,22.10
2011,08,19,15,56,22.20
2011,08,19,15,57,22.30
2011,08,19,15,58,22.40
2011,08,19,15,59,22.40
2011,08,19,16,00,22.40
2011,08,19,16,01,22.50
2011,08,19,16,02,22.60
2011,08,19,16,03,22.60
2011,08,19,16,04,22.50
2011,08,19,16,05,22.50
2011,08,19,16,06,22.50
2011,08,19,16,07,22.40
2011,08,19,16,08,22.40
2011,08,19,16,09,22.30
2011,08,19,16,10,22.30
2011,08,19,16,11,22.20
2011,08,19,16,12,22.10
2011,08,19,16,13,22.00
2011,08,19,16,14,21.90
2011,08,19,16,15,21.90
2011,08,19,16,16,21.90
2011,08,19,16,17,21.90
2011,08,19,16,18,21.90
2011,08,19,16,19,22.00
2011,08,19,16,20,22.00
2011,08,19,16,21,22.00
2011,08,19,16,22,22.00
2011,08,19,16,23,21.90
2011,08,19,16,24,21.90
2011,08,19,16,25,21.80
2011,08,19,16,26,21.80
2011,08,19,16,27,21.70
2011,08,19,16,28,21.70
2011,08,19,16,29,21.70
2011,08,19,16,30,21.60
2011,08,19,16,31,21.60
2011,08,19,16,32,21.60
2011,08,19,16,33,21.50
2011,08,19,16,34,21.40
2011,08,19,16,35,21.30
2011,08,19,16,36,21.30
2011,08,19,16,37,21.30
2011,08,19,16,38,21.30
2011,08,19,16,39,21.30
2011,08,19,16,40,21.40
2011,08,19,16,41,21.50
2011,08,19,16,42,21.60
2011,08,19,16,43,21.60
2011,08,19,16,44,21.60
2011,08,19,16,45,21.60
2011,08,19,16,46,21.60
2011,08,19,16,47,21.60
2011,08,19,16,48,21.60
2011,08,19,16,49,21.60
2011,08,19,16,50,21.60
2011,08,19,16,51,21.60
2011,08,19,16,52,21.60
2011,08,19,16,53,21.60
2011,08,19,16,54,21.60
2011,08,19,16,55,21.80
2011,08,19,16,56,21.90
2011,08,19,16,57,21.90
2011,08,19,16,58,22.00
2011,08,19,16,59,22.10
2011,08,19,17,00,22.20
2011,08,19,17,01,22.20
2011,08,19,17,02,22.20
2011,08,19,17,03,22.20
2011,08,19,17,04,22.20
2011,08,19,17,05,22.20
2011,08,19,17,06,22.20
2011,08,19,17,07,22.30
2011,08,19,17,08,22.30
2011,08,19,17,09,22.40
2011,08,19,17,10,22.40
2011,08,19,17,11,22.40
2011,08,19,17,12,22.40
2011,08,19,17,13,22.50
2011,08,19,17,14,22.60
2011,08,19,17,15,22.60
2011,08,19,17,16,22.80
2011,08,19,17,17,22.80
2011,08,19,17,18,22.90
2011,08,19,17,19,22.90
2011,08,19,17,20,22.80
2011,08,19,17,21,22.80
2011,08,19,17,22,22.80